DW6016 Weather Reports


Display with metric or nautical units.
time (UTC)temp
F
wind
direction
speed
MPH
gust
MPH
rain 1hr
in
rain 24hr
in
rain mn
in
humidity
%
barometer
mb
20260502214655 66 301 0.0 0.0 0.00 0.00 0.00 68 1014.2
20260502214152 65 250 0.0 1.0 0.00 0.00 0.00 71 1014.5
20260502213649 65 189 2.0 3.0 0.00 0.00 0.00 69 1014.4
20260502213146 65 138 2.0 2.0 0.00 0.00 0.00 70 1014.4
20260502212645 65 318 0.0 0.0 0.00 0.00 0.00 68 1014.7
20260502212143 65 300 0.0 1.0 0.00 0.00 0.00 69 1014.8
20260502211638 65 332 0.0 0.0 0.00 0.00 0.00 70 1014.5
20260502211135 64 320 1.0 1.0 0.00 0.00 0.00 70 1015.0
20260502210633 64 5 2.0 2.0 0.00 0.00 0.00 68 1014.7
20260502210129 64 288 2.0 2.0 0.00 0.00 0.00 70 1015.0
20260502205626 64 294 1.0 1.0 0.00 0.00 0.00 74 1014.8
20260502205123 64 249 0.0 1.0 0.00 0.00 0.00 72 1015.1
20260502204620 64 347 1.0 1.0 0.00 0.00 0.00 71 1015.3
20260502204117 63 346 1.0 1.0 0.00 0.00 0.00 71 1015.5
20260502203614 63 324 0.0 1.0 0.00 0.00 0.00 72 1015.5
20260502203112 63 310 1.0 1.0 0.00 0.00 0.00 72 1015.6
20260502202607 63 308 0.0 1.0 0.00 0.00 0.00 74 1015.6
20260502202106 62 151 1.0 2.0 0.00 0.00 0.00 74 1015.6
20260502201601 62 301 1.0 2.0 0.00 0.00 0.00 73 1015.7
20260502201058 61 296 3.0 3.0 0.00 0.00 0.00 74 1015.8
20260502200554 61 304 1.0 1.0 0.00 0.00 0.00 74 1015.7
20260502200052 62 292 0.0 0.0 0.00 0.00 0.00 74 1015.9
20260502195550 61 305 1.0 1.0 0.00 0.00 0.00 77 1015.8
20260502195045 60 299 1.0 1.0 0.00 0.00 0.00 77 1015.8
20260502194542 59 297 1.0 1.0 0.00 0.00 0.00 77 1015.9
20260502194038 60 290 2.0 2.0 0.00 0.00 0.00 76 1016.1
20260502193536 60 316 2.0 2.0 0.00 0.00 0.00 78 1016.1
20260502193032 60 301 1.0 1.0 0.00 0.00 0.00 77 1015.8
20260502192528 59 289 2.0 2.0 0.00 0.00 0.00 77 1016.2
20260502192026 59 292 1.0 1.0 0.00 0.00 0.00 79 1016.0
20260502191522 60 296 2.0 2.0 0.00 0.00 0.00 78 1016.3
20260502191020 59 291 2.0 2.0 0.00 0.00 0.00 78 1016.3
20260502190517 60 305 1.0 2.0 0.00 0.00 0.00 77 1016.7
20260502190014 60 322 0.0 1.0 0.00 0.00 0.00 76 1016.6
20260502185509 59 302 0.0 1.0 0.00 0.00 0.00 78 1016.6
20260502185006 59 351 0.0 0.0 0.00 0.00 0.00 78 1016.8
20260502184502 59 48 2.0 3.0 0.00 0.00 0.00 77 1016.7
20260502183958 59 301 2.0 3.0 0.00 0.00 0.00 78 1016.0
20260502183455 59 298 2.0 2.0 0.00 0.00 0.00 79 1016.3
20260502182949 57 308 2.0 2.0 0.00 0.00 0.00 81 1016.5
20260502182446 57 317 2.0 3.0 0.00 0.00 0.00 80 1016.6
20260502181942 57 305 1.0 1.0 0.00 0.00 0.00 81 1016.6
20260502181440 57 311 1.0 1.0 0.00 0.00 0.00 82 1016.8
20260502180938 57 290 0.0 1.0 0.00 0.00 0.00 81 1016.9
20260502180436 57 315 0.0 1.0 0.00 0.00 0.00 81 1016.6
20260502170354 54 294 1.0 2.0 0.00 0.00 0.00 86 1017.3
20260502164341 54 312 1.0 1.0 0.00 0.00 0.00 86 1017.0
20260502163837 54 304 0.0 0.0 0.00 0.00 0.00 87 1017.2
20260502163334 54 306 0.0 0.0 0.00 0.00 0.00 87 1017.0
20260502162832 54 321 0.0 0.0 0.00 0.00 0.00 88 1017.2
20260502162328 54 298 1.0 2.0 0.00 0.00 0.00 87 1017.1
20260502161825 53 350 0.0 0.0 0.00 0.00 0.00 88 1017.3
20260502161321 53 309 0.0 0.0 0.00 0.00 0.00 88 1017.2
20260502160819 53 22 1.0 1.0 0.00 0.00 0.00 88 1017.2
20260502160318 53 123 1.0 2.0 0.00 0.00 0.00 88 1017.1
20260502152247 53 285 1.0 1.0 0.00 0.00 0.00 88 1017.2
20260502151744 53 282 1.0 1.0 0.00 0.00 0.00 88 1017.2
20260502151241 53 323 1.0 1.0 0.00 0.00 0.00 88 1017.1
20260502150739 53 354 1.0 1.0 0.00 0.00 0.00 88 1017.2
20260502150236 53 305 0.0 0.0 0.00 0.00 0.00 88 1017.4
20260502130624 51 306 0.0 0.0 0.00 0.00 0.00 89 1017.0
20260502130122 51 297 1.0 1.0 0.00 0.00 0.00 89 1017.1
20260502123607 51 299 0.0 1.0 0.00 0.00 0.00 89 1017.0
20260502123104 51 316 0.0 1.0 0.00 0.00 0.00 89 1017.2
20260502122601 51 319 1.0 1.0 0.00 0.00 0.00 89 1017.1
20260502122057 51 288 1.0 2.0 0.00 0.00 0.00 89 1017.2
20260502121555 51 297 1.0 1.0 0.00 0.00 0.00 89 1017.1
20260502121053 51 308 0.0 0.0 0.00 0.00 0.00 89 1016.7
20260502120548 51 334 1.0 1.0 0.00 0.00 0.00 90 1016.9
20260502115544 51 300 1.0 1.0 0.00 0.00 0.00 90 1017.0
20260502115039 51 303 1.0 1.0 0.00 0.00 0.00 91 1016.9
20260502114536 51 284 1.0 1.0 0.00 0.00 0.00 91 1017.0
20260502114033 51 297 1.0 1.0 0.00 0.00 0.00 92 1017.0
20260502113531 51 301 0.0 0.0 0.00 0.00 0.00 92 1016.8
20260502113029 51 301 0.0 0.0 0.00 0.00 0.00 91 1017.1
20260502112526 51 300 1.0 1.0 0.00 0.00 0.00 91 1016.9
20260502112024 51 300 0.0 1.0 0.00 0.00 0.00 91 1017.3
20260502111521 51 303 0.0 0.0 0.00 0.00 0.00 91 1017.2
20260502111018 51 244 1.0 2.0 0.00 0.00 0.00 91 1016.9
20260502110515 51 300 0.0 0.0 0.00 0.00 0.00 91 1016.9
20260502110013 51 305 0.0 1.0 0.00 0.00 0.00 92 1017.0
20260502105510 51 308 0.0 0.0 0.00 0.00 0.00 91 1016.9
20260502105008 51 311 0.0 0.0 0.00 0.00 0.00 91 1017.0
20260502104505 51 297 0.0 1.0 0.00 0.00 0.00 91 1017.1
20260502104002 51 309 0.0 0.0 0.00 0.00 0.00 91 1017.2
20260502103459 51 311 0.0 0.0 0.00 0.00 0.00 91 1017.4
20260502102956 51 313 1.0 1.0 0.00 0.00 0.00 91 1017.4
20260502102454 51 316 0.0 0.0 0.00 0.00 0.00 91 1017.6
20260502101950 51 303 0.0 1.0 0.00 0.00 0.00 90 1017.1
20260502101449 51 301 0.0 0.0 0.00 0.00 0.00 90 1017.0
20260502100947 51 285 1.0 2.0 0.00 0.00 0.00 90 1016.7
20260502100445 51 29 2.0 2.0 0.00 0.00 0.00 91 1016.4
20260502091420 52 303 0.0 0.0 0.00 0.00 0.00 93 1018.1
20260502090917 52 303 0.0 1.0 0.00 0.00 0.00 93 1018.2
20260502090414 52 303 0.0 0.0 0.00 0.00 0.00 92 1018.6
20260502071308 55 96 2.0 2.0 0.00 0.00 0.00 81 1017.9
20260502070807 55 300 1.0 1.0 0.00 0.00 0.00 80 1018.1
20260502070304 55 288 1.0 1.0 0.00 0.00 0.00 80 1017.9
20260502065803 55 306 0.0 0.0 0.00 0.00 0.00 79 1017.9
20260502065300 55 288 0.0 1.0 0.00 0.00 0.00 79 1017.8
20260502064758 55 272 1.0 1.0 0.00 0.00 0.00 80 1017.7
20260502064256 55 302 0.0 1.0 0.00 0.00 0.00 81 1018.2
20260502063753 55 309 0.0 0.0 0.00 0.00 0.00 81 1018.1
20260502063251 55 324 0.0 1.0 0.00 0.00 0.00 81 1018.0
20260502062748 56 310 0.0 0.0 0.00 0.00 0.00 80 1018.0
20260502062245 56 298 0.0 1.0 0.00 0.00 0.00 80 1017.9
20260502061744 56 283 1.0 1.0 0.00 0.00 0.00 80 1017.8
20260502061242 56 314 0.0 1.0 0.00 0.00 0.00 79 1017.9
20260502060741 56 304 0.0 0.0 0.00 0.00 0.00 79 1017.8
20260502060237 56 314 0.0 0.0 0.00 0.00 0.00 79 1017.8
20260502055736 57 315 0.0 0.0 0.00 0.00 0.00 78 1017.6
20260502055233 57 280 0.0 1.0 0.00 0.00 0.00 78 1017.7
20260502054732 57 308 0.0 0.0 0.00 0.00 0.00 78 1017.7
20260502054229 57 296 0.0 0.0 0.00 0.00 0.00 78 1017.7
20260502053727 57 309 0.0 1.0 0.00 0.00 0.00 77 1017.5
20260502053224 58 314 0.0 1.0 0.00 0.00 0.00 77 1017.6
20260502052722 58 340 1.0 1.0 0.00 0.00 0.00 77 1017.4
20260502052220 58 300 0.0 0.0 0.00 0.00 0.00 77 1017.6
20260502051717 58 304 0.0 0.0 0.00 0.00 0.00 77 1017.4
20260502051216 58 303 0.0 0.0 0.00 0.00 0.00 77 1017.2
20260502050711 59 303 0.0 0.0 0.00 0.00 0.00 77 1017.1
20260502050208 59 300 0.0 0.0 0.00 0.00 0.00 77 1017.2
20260502045705 59 323 0.0 1.0 0.00 0.00 0.00 76 1017.2
20260502045202 60 298 0.0 0.0 0.00 0.00 0.00 76 1017.2
20260502044659 60 313 0.0 0.0 0.00 0.00 0.00 75 1017.2
20260502044155 61 304 1.0 1.0 0.00 0.00 0.00 74 1017.4
20260502043653 61 305 1.0 1.0 0.00 0.00 0.00 74 1017.2
20260502043150 62 287 1.0 1.0 0.00 0.00 0.00 73 1017.1
20260502042649 62 299 0.0 1.0 0.00 0.00 0.00 72 1017.2
20260502042146 62 300 0.0 0.0 0.00 0.00 0.00 73 1016.9
20260502041644 62 308 0.0 0.0 0.00 0.00 0.00 72 1017.0
20260502041141 62 322 0.0 0.0 0.00 0.00 0.00 71 1016.9
20260502040638 63 299 1.0 1.0 0.00 0.00 0.00 71 1016.8
20260502040135 63 300 0.0 1.0 0.00 0.00 0.00 71 1016.6
20260502035631 63 305 1.0 1.0 0.00 0.00 0.00 70 1016.6
20260502035128 64 61 1.0 2.0 0.00 0.00 0.00 71 1016.6
20260502034626 64 302 1.0 1.0 0.00 0.00 0.00 70 1016.3
20260502034125 64 292 1.0 1.0 0.00 0.00 0.00 69 1016.2
20260502033622 64 305 0.0 1.0 0.00 0.00 0.00 69 1016.1
20260502033120 65 299 1.0 1.0 0.00 0.00 0.00 69 1016.1
20260502032615 65 342 1.0 1.0 0.00 0.00 0.00 69 1015.9
20260502032112 65 284 1.0 1.0 0.00 0.00 0.00 68 1016.1
20260502031610 66 304 0.0 1.0 0.00 0.00 0.00 67 1015.9
20260502031107 66 303 1.0 1.0 0.00 0.00 0.00 66 1015.9
20260502030606 66 294 0.0 1.0 0.00 0.00 0.00 65 1015.8
20260502025600 67 299 1.0 1.0 0.00 0.00 0.00 64 1015.6
20260502025058 67 303 2.0 2.0 0.00 0.00 0.00 64 1015.5
20260502024556 68 302 1.0 1.0 0.00 0.00 0.00 64 1015.5
20260502024054 68 302 1.0 1.0 0.00 0.00 0.00 63 1015.5
20260502023551 68 306 1.0 2.0 0.00 0.00 0.00 62 1015.4
20260502023048 68 186 2.0 2.0 0.00 0.00 0.00 61 1015.4
20260502022545 69 306 0.0 1.0 0.00 0.00 0.00 61 1015.3
20260502022043 69 308 0.0 1.0 0.00 0.00 0.00 60 1015.4
20260502021540 69 296 1.0 1.0 0.00 0.00 0.00 60 1015.3
20260502021036 70 312 0.0 1.0 0.00 0.00 0.00 60 1015.5
20260502020534 71 293 1.0 2.0 0.00 0.00 0.00 60 1015.3
20260502020031 71 311 0.0 0.0 0.00 0.00 0.00 60 1015.1
20260502015529 71 312 0.0 1.0 0.00 0.00 0.00 60 1015.1
20260502015025 71 305 0.0 1.0 0.00 0.00 0.00 61 1015.1
20260502014522 71 293 1.0 1.0 0.00 0.00 0.00 60 1015.2
20260502014019 72 300 1.0 1.0 0.00 0.00 0.00 59 1015.3
20260502013514 72 291 0.0 1.0 0.00 0.00 0.00 58 1015.0
20260502013011 73 299 1.0 1.0 0.00 0.00 0.00 58 1015.0
20260502012508 73 300 2.0 2.0 0.00 0.00 0.00 58 1015.0
20260502012006 73 283 1.0 1.0 0.00 0.00 0.00 56 1015.1
20260502011502 74 324 0.0 0.0 0.00 0.00 0.00 54 1015.2
20260502010959 73 305 0.0 0.0 0.00 0.00 0.00 55 1015.0
20260502010456 73 302 1.0 2.0 0.00 0.00 0.00 51 1015.0
20260502005952 73 309 0.0 0.0 0.00 0.00 0.00 51 1015.0
20260502005450 73 299 0.0 0.0 0.00 0.00 0.00 50 1015.0
20260502004948 73 304 1.0 1.0 0.00 0.00 0.00 52 1014.9
20260502004443 73 304 1.0 1.0 0.00 0.00 0.00 51 1014.9
20260502003941 73 314 1.0 1.0 0.00 0.00 0.00 50 1015.0
20260502003438 73 304 1.0 1.0 0.00 0.00 0.00 53 1015.0
20260502002934 73 303 0.0 0.0 0.00 0.00 0.00 52 1014.9
20260502002431 74 309 0.0 0.0 0.00 0.00 0.00 53 1015.2
20260502001929 73 318 1.0 1.0 0.00 0.00 0.00 55 1015.0
20260502001426 73 303 0.0 1.0 0.00 0.00 0.00 52 1015.1
20260502000924 73 303 1.0 1.0 0.00 0.00 0.00 51 1015.0
20260502000424 73 306 0.0 0.0 0.00 0.00 0.00 52 1015.1
20260501235918 73 309 0.0 1.0 0.00 0.00 0.00 51 1015.1
20260501235414 73 90 1.0 1.0 0.00 0.00 0.00 53 1015.0
20260501234909 73 314 2.0 2.0 0.00 0.00 0.00 53 1015.1
20260501234406 73 354 0.0 1.0 0.00 0.00 0.00 52 1014.9
20260501233904 73 301 2.0 2.0 0.00 0.00 0.00 54 1015.1
20260501233402 73 310 0.0 0.0 0.00 0.00 0.00 53 1014.8
20260501232857 72 321 0.0 0.0 0.00 0.00 0.00 53 1015.2
20260501232355 72 273 0.0 1.0 0.00 0.00 0.00 55 1015.2
20260501231852 73 303 1.0 1.0 0.00 0.00 0.00 54 1015.2
20260501231350 73 294 0.0 1.0 0.00 0.00 0.00 53 1015.0
20260501230848 73 315 0.0 0.0 0.00 0.00 0.00 54 1015.4
20260501230347 72 294 0.0 0.0 0.00 0.00 0.00 55 1015.5
20260501225843 72 295 0.0 1.0 0.00 0.00 0.00 56 1015.6
20260501225341 72 271 1.0 1.0 0.00 0.00 0.00 55 1015.5
20260501224837 72 301 0.0 1.0 0.00 0.00 0.00 57 1015.5
20260501224335 72 313 2.0 2.0 0.00 0.00 0.00 56 1015.8
20260501223831 72 299 0.0 0.0 0.00 0.00 0.00 56 1015.8
20260501223327 72 304 0.0 0.0 0.00 0.00 0.00 54 1015.7
20260501222823 71 310 0.0 0.0 0.00 0.00 0.00 56 1015.6
20260501222320 71 298 2.0 2.0 0.00 0.00 0.00 55 1015.9
20260501221817 72 309 0.0 1.0 0.00 0.00 0.00 56 1016.1
20260501221314 71 305 0.0 1.0 0.00 0.00 0.00 56 1015.8
20260501220812 71 343 1.0 2.0 0.00 0.00 0.00 55 1016.1
20260501220309 71 281 0.0 1.0 0.00 0.00 0.00 55 1016.0
20260501215806 71 134 2.0 2.0 0.00 0.00 0.00 56 1016.1
20260501215305 70 308 0.0 0.0 0.00 0.00 0.00 57 1015.9